Location: Ambatotampy
(18.8181°S, 47.6186°E)
Time: 23:53:41
(UTC+00:00)

Cosmos 1025 Rocket - Pass Details

Date: 21 January 2021
Orbit: 594 x 618 km, 82.5° (Epoch: 24 February)

Event Time Altitude Azimuth Distance (km) Brightness Sun altitude
Exits shadow 01:15:12 14° 353° (N) 1,707 5.0 -16.6°
Maximum altitude 01:18:55 83° 265° (W) 621 2.9 -15.8°
Drops below altitude 10° 01:23:17 10° 177° (S) 1,970 6.0 -14.9°
Sets 01:25:30 0° 176° (S) 2,876 6.9 -14.5°
